Weather History for KOTH - March, 2012

Change the Weather History Date:

Friday, March 30, 2012

  Actual Average Record
Temperature  
Mean Temperature 49 °F 48 °F  
Max Temperature 54 °F 54 °F 77 °F (1911)
Min Temperature 43 °F 42 °F 31 °F (1936)
Degree Days  
Heating Degree Days 16 17  
Month to date heating degree days 602 519  
Since 1 July heating degree days 3752 3693  
Cooling Degree Days 0 0  
Month to date cooling degree days 0 0  
Year to date cooling degree days 0 0  
Moisture  
Dew Point 42 °F    
Average Humidity 74    
Maximum Humidity 77    
Minimum Humidity 70    
Precipitation  
Precipitation 1.34 in 0.22 in 1.93 in (1974)
Month to date precipitation 11.13 7.60  
Year to date precipitation 19.02 25.38  
Sea Level Pressure  
Sea Level Pressure 29.80 in    
Wind  
Wind Speed 12 mph (SW)    
Max Wind Speed 23 mph    
Max Gust Speed 43 mph    
Visibility 6 miles    
Events      
T = Trace of Precipitation, MM = Missing Value Source: NWS Daily Summary

Daily Weather History Graph

Daily Weather History Graph

Search for Another Location

Airport or City:

Trip Planner

Search our weather history database for the weather conditions in past years. The results will help you decide how hot, cold, wet, or windy it might be!

Date:

Astronomy

Mar. 30, 2012 Rise Set
Actual Time 7:01 AM PDT 7:41 PM PDT
Civil Twilight 6:32 AM PDT 8:10 PM PDT
Nautical Twilight 5:58 AM PDT 8:45 PM PDT
Astronomical Twilight 5:23 AM PDT 9:20 PM PDT
Moon 12:04 PM PDT (3/30) 2:30 AM PDT (3/30)
Length of Visible Light 13h 38m
Length of Day
12h 40m
Waxing Crescent, 50% of the Moon is Illuminated
Mar 30
Waxing Crescent
Mar 30
First Quarter
Apr 6
Full
Apr 13
Last Quarter
Apr 21
New

Hourly Weather History & Observations

Time (PDT) Temp. Windchill Dew Point Humidity Pressure Visibility Wind Dir Wind Speed Gust Speed Precip Events Conditions
12:15 AM 53.6 °F - 44.6 °F 72% 29.70 in 4.0 mi South 24.2 mph 36.8 mph 0.01 in   Overcast
12:35 AM 53.6 °F - 46.4 °F 77% 29.70 in 4.0 mi SSW 26.5 mph 38.0 mph 0.01 in   Overcast
12:55 AM 53.6 °F - 46.4 °F 77% 29.71 in 3.0 mi SSW 21.9 mph 42.6 mph 0.04 in   Overcast
1:15 AM 53.6 °F - 44.6 °F 72% 29.70 in 3.0 mi SSW 24.2 mph 34.5 mph 0.01 in   Overcast
1:35 AM 53.6 °F - 44.6 °F 72% 29.71 in 4.0 mi SSW 21.9 mph 34.5 mph 0.01 in   Overcast
1:55 AM 53.6 °F - 46.4 °F 77% 29.71 in 3.0 mi SSW 19.6 mph 33.4 mph 0.02 in   Overcast
2:15 AM 53.6 °F - 46.4 °F 77% 29.71 in 3.0 mi SSW 19.6 mph 33.4 mph N/A   Overcast
2:35 AM 53.6 °F - 44.6 °F 72% 29.72 in 3.0 mi SSW 25.3 mph 38.0 mph N/A   Overcast
2:55 AM 53.6 °F - 46.4 °F 77% 29.73 in 4.0 mi SSW 17.3 mph 32.2 mph N/A   Overcast
3:15 AM 53.6 °F - 46.4 °F 77% 29.72 in 3.0 mi SSW 24.2 mph 36.8 mph N/A   Overcast
3:35 AM 53.6 °F - 44.6 °F 72% 29.71 in 4.0 mi SSW 20.7 mph 34.5 mph 0.02 in   Overcast
3:55 AM 53.6 °F - 44.6 °F 72% 29.73 in 5.0 mi SSW 18.4 mph 34.5 mph 0.02 in   Overcast
4:15 AM 53.6 °F - 44.6 °F 72% 29.73 in 2.0 mi SSW 17.3 mph 31.1 mph N/A   Overcast
4:35 AM 53.6 °F - 44.6 °F 72% 29.73 in 4.0 mi SSW 23.0 mph 32.2 mph N/A   Overcast
4:55 AM 53.6 °F - 44.6 °F 72% 29.73 in 6.0 mi SSW 23.0 mph 32.2 mph N/A   Overcast
5:15 AM 53.6 °F - 44.6 °F 72% 29.74 in 2.5 mi SW 19.6 mph 32.2 mph N/A   Overcast
5:35 AM 53.6 °F - 44.6 °F 72% 29.74 in 6.0 mi SSW 19.6 mph 32.2 mph N/A   Overcast
5:55 AM 53.6 °F - 44.6 °F 72% 29.74 in 3.0 mi SSW 17.3 mph 23.0 mph 0.04 in   Overcast
6:15 AM 53.6 °F - 44.6 °F 72% 29.75 in 7.0 mi SSW 19.6 mph 32.2 mph 0.03 in   Overcast
6:35 AM 53.6 °F - 46.4 °F 77% 29.76 in 9.0 mi SW 17.3 mph 27.6 mph 0.05 in   Overcast
6:55 AM 53.6 °F - 44.6 °F 72% 29.76 in 8.0 mi SW 17.3 mph 25.3 mph 0.08 in   Overcast
7:15 AM 51.8 °F - 44.6 °F 76% 29.77 in 10.0 mi SW 15.0 mph 28.8 mph 0.03 in   Overcast
7:35 AM 51.8 °F - 44.6 °F 76% 29.78 in 9.0 mi SW 17.3 mph 23.0 mph 0.05 in   Overcast
7:55 AM 51.8 °F - 44.6 °F 76% 29.79 in 8.0 mi SW 18.4 mph 23.0 mph 0.09 in   Overcast
8:15 AM 51.8 °F - 44.6 °F 76% 29.80 in 6.0 mi SW 16.1 mph 26.5 mph 0.03 in   Mostly Cloudy
8:35 AM 51.8 °F - 44.6 °F 76% 29.81 in 4.0 mi WSW 16.1 mph 26.5 mph 0.07 in   Mostly Cloudy
8:55 AM 50.0 °F - 42.8 °F 76% 29.82 in 5.0 mi WSW 16.1 mph 20.7 mph 0.10 in   Overcast
9:15 AM 50.0 °F - 42.8 °F 76% 29.83 in 5.0 mi WSW 13.8 mph - N/A   Mostly Cloudy
9:35 AM 48.2 °F - 42.8 °F 82% 29.84 in 5.0 mi SW 10.4 mph - 0.07 in   Overcast
9:55 AM 48.2 °F - 41.0 °F 76% 29.86 in 6.0 mi West 15.0 mph 23.0 mph 0.14 in   Overcast
10:15 AM 48.2 °F - 39.2 °F 71% 29.87 in 7.0 mi West 12.7 mph - 0.05 in   Overcast
10:35 AM 48.2 °F - 39.2 °F 71% 29.86 in 8.0 mi West 10.4 mph - 0.10 in   Overcast
10:55 AM 48.2 °F - 39.2 °F 71% 29.87 in 8.0 mi West 8.1 mph - 0.14 in   Overcast
11:15 AM 48.2 °F - 39.2 °F 71% 29.87 in 8.0 mi SW 4.6 mph - 0.04 in   Overcast
11:35 AM 46.4 °F 42.9 °F 39.2 °F 76% 29.88 in 9.0 mi SW 6.9 mph - 0.08 in   Mostly Cloudy
11:55 AM 46.4 °F 43.5 °F 39.2 °F 76% 29.88 in 4.0 mi South 5.8 mph - 0.13 in   Mostly Cloudy
12:15 PM 46.4 °F 44.3 °F 39.2 °F 76% 29.88 in 4.0 mi South 4.6 mph - 0.05 in   Overcast
12:35 PM 46.4 °F 43.5 °F 39.2 °F 76% 29.88 in 4.0 mi SW 5.8 mph - 0.09 in   Overcast
12:55 PM 46.4 °F 44.3 °F 39.2 °F 76% 29.88 in 5.0 mi West 4.6 mph - 0.13 in   Overcast
1:15 PM 46.4 °F 41.9 °F 39.2 °F 76% 29.89 in 5.0 mi West 9.2 mph - 0.02 in   Overcast
1:35 PM 46.4 °F 41.5 °F 37.4 °F 71% 29.88 in 5.0 mi NNW 10.4 mph - 0.06 in   Mostly Cloudy
1:55 PM 46.4 °F 42.9 °F 37.4 °F 71% 29.89 in 5.0 mi NNW 6.9 mph - 0.08 in   Mostly Cloudy
2:15 PM 44.6 °F 40.7 °F 37.4 °F 76% 29.88 in 10.0 mi North 6.9 mph - 0.03 in   Overcast
2:35 PM 44.6 °F 42.2 °F 35.6 °F 71% 29.88 in 10.0 mi North 4.6 mph - 0.04 in   Overcast
2:55 PM 44.6 °F 40.7 °F 35.6 °F 71% 29.88 in 7.0 mi North 6.9 mph - 0.05 in   Overcast
3:15 PM 44.6 °F 41.4 °F 35.6 °F 71% 29.86 in 10.0 mi NNE 5.8 mph - 0.02 in   Overcast
3:35 PM 44.6 °F 40.2 °F 35.6 °F 71% 29.84 in 9.0 mi NNE 8.1 mph - 0.04 in   Overcast
3:55 PM 44.6 °F 39.7 °F 37.4 °F 76% 29.84 in 10.0 mi NE 9.2 mph - 0.06 in   Overcast
4:15 PM 44.6 °F 39.7 °F 35.6 °F 71% 29.84 in 10.0 mi NNE 9.2 mph - 0.01 in   Overcast
4:35 PM 44.6 °F 40.2 °F 35.6 °F 71% 29.84 in 10.0 mi NE 8.1 mph - 0.02 in   Overcast
4:55 PM 44.6 °F 39.7 °F 35.6 °F 71% 29.83 in 5.0 mi NE 9.2 mph - 0.06 in   Overcast
5:15 PM 44.6 °F 38.8 °F 35.6 °F 71% 29.81 in 5.0 mi NE 11.5 mph - 0.02 in   Overcast
5:35 PM 44.6 °F 39.7 °F 35.6 °F 71% 29.79 in 5.0 mi NNE 9.2 mph - 0.03 in   Overcast
5:55 PM 44.6 °F 39.7 °F 35.6 °F 71% 29.79 in 5.0 mi NNE 9.2 mph - 0.05 in   Overcast
6:15 PM 42.8 °F 37.5 °F 35.6 °F 76% 29.77 in 7.0 mi NE 9.2 mph - 0.03 in   Overcast
6:35 PM 42.8 °F 39.3 °F 35.6 °F 76% 29.77 in 7.0 mi NNE 5.8 mph - 0.05 in   Overcast
6:55 PM 42.8 °F 36.6 °F 35.6 °F 76% 29.75 in 3.0 mi NE 11.5 mph - 0.08 in   Overcast
7:15 PM 42.8 °F 36.2 °F 35.6 °F 76% 29.74 in 6.0 mi NNE 12.7 mph 16.1 mph 0.03 in   Overcast
7:35 PM 42.8 °F 37.5 °F 35.6 °F 76% 29.72 in 7.0 mi ENE 9.2 mph - 0.05 in   Overcast
7:55 PM 42.8 °F 41.1 °F 33.8 °F 70% 29.70 in 9.0 mi East 3.5 mph - 0.06 in   Overcast
8:15 PM 42.8 °F 40.1 °F 35.6 °F 76% 29.69 in 8.0 mi NE 4.6 mph - 0.01 in   Overcast
8:35 PM 42.8 °F 39.3 °F 35.6 °F 76% 29.67 in 4.0 mi NE 5.8 mph - 0.03 in   Overcast
8:55 PM 42.8 °F 37.5 °F 35.6 °F 76% 29.65 in 4.0 mi East 9.2 mph - 0.03 in   Overcast
9:15 PM 42.8 °F 38.6 °F 35.6 °F 76% 29.64 in 10.0 mi East 6.9 mph - N/A   Overcast
9:35 PM 44.6 °F 41.4 °F 35.6 °F 71% 29.62 in 10.0 mi ESE 5.8 mph - N/A   Overcast
9:55 PM 44.6 °F 40.7 °F 35.6 °F 71% 29.61 in 10.0 mi SE 6.9 mph - N/A   Overcast
10:15 PM 44.6 °F 40.7 °F 37.4 °F 76% 29.60 in 10.0 mi SSE 6.9 mph - 0.01 in   Overcast
10:35 PM 44.6 °F 40.2 °F 37.4 °F 76% 29.59 in 10.0 mi SSE 8.1 mph - 0.01 in   Overcast
10:55 PM 44.6 °F 41.4 °F 37.4 °F 76% 29.57 in 9.0 mi SSE 5.8 mph - 0.01 in   Overcast
11:15 PM 44.6 °F 40.7 °F 37.4 °F 76% 29.56 in 10.0 mi South 6.9 mph - N/A   Overcast
11:35 PM 44.6 °F 41.4 °F 37.4 °F 76% 29.54 in 10.0 mi SE 5.8 mph - N/A   Overcast
11:55 PM 46.4 °F 40.7 °F 39.2 °F 76% 29.50 in 10.0 mi ESE 12.7 mph - N/A   Overcast